PY2VE-13 Weather Reports


Display with metric or nautical units.
time (UTC)temp
F
wind
direction
speed
MPH
gust
MPH
rain 1hr
in
rain 24hr
in
rain mn
in
humidity
%
barometer
mb
20260509184905 102 0.0 0.0 0.00 0.00 0.00 23 1014.4
20260509183405 92 0.0 0.0 0.00 0.00 0.00 33 1015.9
20260509181905 86 0.0 0.0 0.00 0.00 0.00 38 1016.9
20260509180405 86 0.0 0.0 0.00 0.00 0.00 38 1017.0
20260509174905 87 0.0 0.0 0.00 0.00 0.00 37 1016.9
20260509173405 86 0.0 0.0 0.00 0.00 0.00 38 1017.1
20260509171905 86 0.0 0.0 0.00 0.00 0.00 39 1017.3
20260509170405 86 0.0 0.0 0.00 0.00 0.00 39 1017.5
20260509164905 87 0.0 0.0 0.00 0.00 0.00 39 1017.6
20260509163405 86 0.0 0.0 0.00 0.00 0.00 39 1017.9
20260509161905 86 0.0 0.0 0.00 0.00 0.00 40 1018.2
20260509160405 86 0.0 0.0 0.00 0.00 0.00 39 1018.2
20260509154904 86 0.0 0.0 0.00 0.00 0.00 40 1018.4
20260509153404 85 0.0 0.0 0.00 0.00 0.00 41 1018.7
20260509151905 86 0.0 0.0 0.00 0.00 0.00 40 1018.8
20260509150404 85 0.0 0.0 0.00 0.00 0.00 40 1019.1
20260509144904 83 0.0 0.0 0.00 0.00 0.00 43 1019.6
20260509143404 83 0.0 0.0 0.00 0.00 0.00 45 1019.9
20260509141904 83 0.0 0.0 0.00 0.00 0.00 45 1020.0
20260509140404 83 0.0 0.0 0.00 0.00 0.00 45 1020.1
20260509134904 83 0.0 0.0 0.00 0.00 0.00 45 1020.4
20260509133404 82 0.0 0.0 0.00 0.00 0.00 46 1020.7
20260509131904 82 0.0 0.0 0.00 0.00 0.00 46 1020.5
20260509130404 81 0.0 0.0 0.00 0.00 0.00 47 1020.7
20260509124904 80 0.0 0.0 0.00 0.00 0.00 48 1020.9
20260509123404 82 0.0 0.0 0.00 0.00 0.00 46 1020.5
20260509121904 81 0.0 0.0 0.00 0.00 0.00 47 1020.5
20260509120404 79 0.0 0.0 0.00 0.00 0.00 51 1020.7
20260509114904 78 0.0 0.0 0.00 0.00 0.00 51 1020.6
20260509113404 77 0.0 0.0 0.00 0.00 0.00 53 1020.5
20260509111904 77 0.0 0.0 0.00 0.00 0.00 53 1020.5
20260509110404 77 0.0 0.0 0.00 0.00 0.00 54 1020.2
20260509104904 76 0.0 0.0 0.00 0.00 0.00 54 1020.0
20260509103404 75 0.0 0.0 0.00 0.00 0.00 57 1020.1
20260509101904 72 0.0 0.0 0.00 0.00 0.00 62 1020.2
20260509100359 72 0.0 0.0 0.00 0.00 0.00 60 1020.1
20260509094904 75 0.0 0.0 0.00 0.00 0.00 55 1019.3
20260509093404 78 0.0 0.0 0.00 0.00 0.00 49 1018.4
20260509091904 76 0.0 0.0 0.00 0.00 0.00 51 1018.2
20260509090404 76 0.0 0.0 0.00 0.00 0.00 52 1018.2
20260509084904 76 0.0 0.0 0.00 0.00 0.00 53 1018.1
20260509083404 75 0.0 0.0 0.00 0.00 0.00 54 1017.8
20260509081904 75 0.0 0.0 0.00 0.00 0.00 54 1017.6
20260509080404 75 0.0 0.0 0.00 0.00 0.00 53 1017.6
20260509074904 76 0.0 0.0 0.00 0.00 0.00 53 1017.6
20260509073404 75 0.0 0.0 0.00 0.00 0.00 53 1017.5
20260509071903 76 0.0 0.0 0.00 0.00 0.00 52 1017.5
20260509070403 77 0.0 0.0 0.00 0.00 0.00 51 1017.5
20260509064904 76 0.0 0.0 0.00 0.00 0.00 52 1017.8
20260509063403 76 0.0 0.0 0.00 0.00 0.00 52 1017.8
20260509061903 77 0.0 0.0 0.00 0.00 0.00 51 1017.6
20260509060403 77 0.0 0.0 0.00 0.00 0.00 50 1017.6
20260509054903 78 0.0 0.0 0.00 0.00 0.00 49 1017.4
20260509053403 79 0.0 0.0 0.00 0.00 0.00 48 1017.2
20260509051903 79 0.0 0.0 0.00 0.00 0.00 48 1017.3
20260509050403 78 0.0 0.0 0.00 0.00 0.00 48 1017.2
20260509044903 78 0.0 0.0 0.00 0.00 0.00 48 1017.4
20260509043403 78 0.0 0.0 0.00 0.00 0.00 48 1017.4
20260509041903 78 0.0 0.0 0.00 0.00 0.00 48 1017.6
20260509040403 79 0.0 0.0 0.00 0.00 0.00 46 1017.4
20260509034903 80 0.0 0.0 0.00 0.00 0.00 45 1017.4
20260509033403 79 0.0 0.0 0.00 0.00 0.00 45 1017.4
20260509031903 80 0.0 0.0 0.00 0.00 0.00 45 1017.2
20260509030403 80 0.0 0.0 0.00 0.00 0.00 44 1017.4
20260509024903 81 0.0 0.0 0.00 0.00 0.00 43 1017.1
20260509023403 80 0.0 0.0 0.00 0.00 0.00 44 1017.1
20260509021903 80 0.0 0.0 0.00 0.00 0.00 44 1017.4
20260509020403 81 0.0 0.0 0.00 0.00 0.00 43 1017.1
20260509014903 82 0.0 0.0 0.00 0.00 0.00 42 1016.8
20260509013403 82 0.0 0.0 0.00 0.00 0.00 42 1016.9
20260509011903 82 0.0 0.0 0.00 0.00 0.00 44 1016.9
20260509010403 82 0.0 0.0 0.00 0.00 0.00 42 1016.7
20260509004903 82 0.0 0.0 0.00 0.00 0.00 42 1016.4
20260509003403 82 0.0 0.0 0.00 0.00 0.00 42 1016.6
20260509001903 82 0.0 0.0 0.00 0.00 0.00 42 1016.6
20260509000403 82 0.0 0.0 0.00 0.00 0.00 41 1016.4
20260508234903 82 0.0 0.0 0.00 0.00 0.00 41 1016.7
20260508233403 83 0.0 0.0 0.00 0.00 0.00 40 1016.4
20260508231903 83 0.0 0.0 0.00 0.00 0.00 40 1016.2
20260508230403 84 0.0 0.0 0.00 0.00 0.00 39 1016.1
20260508224902 84 0.0 0.0 0.00 0.00 0.00 38 1016.1
20260508223402 85 0.0 0.0 0.00 0.00 0.00 37 1016.0
20260508221902 85 0.0 0.0 0.00 0.00 0.00 37 1015.8
20260508220402 85 0.0 0.0 0.00 0.00 0.00 37 1015.7
20260508214902 86 0.0 0.0 0.00 0.00 0.00 36 1015.5
20260508213402 86 0.0 0.0 0.00 0.00 0.00 35 1015.3
20260508211902 86 0.0 0.0 0.00 0.00 0.00 35 1015.2
20260508210402 87 0.0 0.0 0.00 0.00 0.00 35 1015.0
20260508204902 87 0.0 0.0 0.00 0.00 0.00 34 1014.8
20260508203402 87 0.0 0.0 0.00 0.00 0.00 33 1014.6
20260508201902 87 0.0 0.0 0.00 0.00 0.00 33 1014.4
20260508200402 87 0.0 0.0 0.00 0.00 0.00 32 1014.2
20260508194902 88 0.0 0.0 0.00 0.00 0.00 32 1014.0
20260508193402 89 0.0 0.0 0.00 0.00 0.00 31 1013.8
20260508191902 91 0.0 0.0 0.00 0.00 0.00 29 1013.5
20260508190402 103 0.0 0.0 0.00 0.00 0.00 21 1011.9